SCP
0 0 -0 0 0 0 0 0 0 0 0 0 0 -0 -0 0 0 0 0 0 0 0 0 0 0 0 0 0 0 0 0 0 -0 -0 -0 -0 -0 -0 -0 -0 -0 -0 -0 -0 -0 -0 -0 -0 0
0 0 0 0 0 0 0 0 0 0 0 -0 -0 -0 -0 0 0 -0 -0 -0 0 0 0 0 0 0 0 0 0 0 0 0 -0 -0 -0 -0 -0 -0 -0 -0 -0 -0 -0 -0 -0 0 -0 0 0
0 0 0 0 0 0 0 0 0 0 0 0 -0 -0 -0 -0 0 -0 0 -0 0 0 0 0 0 0 0 0 0 0 0 0 -0 -0 -0 -0 -0 -0 -0 -0 -0 -0 -0 0 -0 -0 -0 -0 0
0 0 0 0 0 0 0 0 0 0 0 0 -0 -0 0 0 -0 0 -0 -0 0 0 0 0 0 0 0 0 0 0 -0 -0 -0 -0 -0 -0 -0 -0 -0 -0 -0 -0 -0 -0 -0 -0 -0 -0 -0
0 0 0 0 0 0 0 0 0 0 0 0 0 -0 0 0 -0 -0 -0 -0 -0 0 0 0 0 -0 -0 -0 -0 -0 -0 -0 -0 -0 -0 -0 -0 -0 -0 -0 -0 -0 -0 -0 -0 -0 -0 -0 -0
0 0 0 0 0 0 0 0 0 0 0 0 0 0 0 0 -0 -0 -0 0 -0 -0 0 0 -0 -0 -0 -0 -0 -0 -0 -0 -0 -0 -0 -0 -0 -0 -0 -0 -0 -0 -0 -0 -0 -0 -0 -0 -0
0 0 0 0 0 0 0 0 0 0 0 0 0 0 0 0 0 -0 -0 -0 -0 0 -0 -0 -0 -0 -0 -0 -0 -0 -0 -0 -0 -0 -0 -0 -0 -0 -0 -0 -0 -0 -0 -0 -0 -0 -0 -0 -0
0 0 0 0 0 0 0 0 0 0 0 0 0 0 0 0 0 0 0 -0 -0 0 -0 -0 -0 -0 -0 -0 -0 -0 -0 -0 -0 -0 -0 -0 -0 -0 -0 -0 -0 -0 -0 -0 -0 -0 -0 0 0
0 0 0 0 0 0 0 0 0 0 0 0 0 0 0 0 0 0 0 -0 -0 0 0 0 0 0 0 0 0 0 -0 -0 -0 -0 -0 -0 0 0 0 0 -0 -0 -0 -0 -0 0 0 0 0
0 0 0 0 0 0 0 0 0 0 0 0 0 0 0 0 0 0 0 0 -0 -0 0 0 0 0 0 0 0 0 0 0 0 0 0 0 0 0 0 0 0 0 0 0 0 0 0 0 0
0 0 0 0 0 0 0 0 0 0 0 0 0 0 0 0 0 0 0 0 0 0 0 0 0 0 0 0 0 0 0 0 0 0 0 0 0 0 0 0 0 0 0 0 0 0 0 0 0
0 0 0 0 0 0 0 0 0 0 0 0 0 0 0 0 0 0 0 0 0 0 0 0 0 0 0 0 0 0 0 0 0 0 0 0 0 0 0 0 0 0 0 0 0 0 0 0 0
0 0 0 0 0 0 0 0 0 0 0 0 0 0 0 0 0 0 0 0 0 0 0 0 0 0 0 0 0 0 0 0 0 0 0 0 0 0 0 0 0 0 0 0 0 0 0 0 0
0 0 0 0 0 0 0 0 0 0 0 0 0 0 0 0 0 0 0 0 0 0 0 0 0 0 0 0 0 0 0 0 0 0 0 0 0 0 0 0 0 0 0 0 0 0 0 0 0
0 0 0 0 -0 0 0 0 0 0 0 0 0 0 0 0 0 0 0 0 0 0 0 0 0 0 0 0 0 0 0 0 0 0 0 0 0 0 0 0 0 0 0 0 0 0 0 0 0
0 0 0 0 0 0 0 0 0 0 0 0 0 0 0 0 0 0 0 0 0 0 0 0 0 0 0 0 0 0 0 0 0 0 0 0 0 0 0 0 0 0 0 0 0 0 0 0 0
0 0 0 0 0 0 0 0 0 0 0 0 0 0 0 0 0 0 0 0 0 0 0 0 0 0 0 0 0 0 0 0 0 0 0 0 0 0 0 0 0 0 0 0 0 0 0 0 0
0 0 0 0 0 0 0 0 0 0 0 0 0 0 0 0 0 0 0 0 0 0 0 0 0 0 0 0 0 0 0 0 0 0 0 0 0 0 0 0 0 0 0 0 0 0 0 0 0
0 0 0 0 0 0 0 0 0 0 0 0 0 0 0 0 0 0 0 0 0 0 0 0 0 0 0 0 0 0 0 0 0 0 0 0 0 0 0 0 0 0 0 0 0 0 0 0 0
0 0 0 0 0 0 0 0 0 0 0 0 0 0 0 0 0 0 0 0 0 0 0 0 0 0 0 0 0 0 0 0 0 0 0 0 0 0 0 0 0 0 0 0 0 0 0 0 0
0 0 0 0 0 0 0 0 0 0 0 0 0 0 0 0 0 0 0 0 0 0 0 0 0 0 0 0 0 0 0 0 0 0 0 0 0 0 0 0 0 0 0 0 0 0 0 0 0
0 0 0 0 0 0 0 -0 -0 0 0 0 0 0 0 0 0 0 0 0 0 0 0 0 0 0 0 0 0 0 0 0 0 0 0 0 0 0 0 0 0 0 0 0 0 0 0 0 0
0 0 0 0 0 0 0 0 -0 -0 0 0 0 0 0 0 0 0 0 0 0 0 0 0 0 0 0 0 0 0 0 0 0 0 0 0 0 0 0 0 0 0 0 0 0 0 0 0 0
0 0 0 0 0 0 0 0 -0 -0 0 0 0 0 0 0 0 0 0 0 0 0 0 0 0 0 0 0 0 0 0 0 0 0 0 0 0 0 0 0 0 0 0 0 0 0 0 0 0
0 0 0 0 0 0 0 0 0 -0 -0 0 0 0 0 0 0 0 0 0 0 0 0 0 0 0 0 0 0 0 0 0 0 0 0 0 0 0 0 0 0 0 0 0 0 0 0 0 0
0 0 0 0 0 0 0 0 0 0 0 0 0 0 0 0 0 0 0 0 0 0 0 0 0 0 0 0 0 0 0 0 0 0 0 0 0 0 0 0 0 0 0 0 0 0 0 0 0
0 0 0 0 0 0 0 0 0 0 0 0 0 0 0 0 0 0 0 0 0 0 0 0 0 0 0 0 0 0 0 0 0 0 0 0 0 0 0 0 0 0 0 0 0 0 0 0 0
0 0 0 0 0 0 0 0 0 0 -0 0 0 0 0 0 0 0 0 0 0 0 0 0 0 0 0 0 0 0 0 0 0 0 0 0 0 0 0 0 0 0 0 0 0 0 0 0 0
0 0 0 0 0 0 0 0 0 0 0 0 0 0 0 0 0 0 0 0 0 0 0 0 0 0 0 0 0 0 0 0 0 0 0 0 0 0 0 0 0 0 0 0 0 0 0 0 0
0 0 0 0 0 0 0 0 0 0 0 0 -0 0 0 0 0 0 0 0 0 0 0 0 0 0 0 0 0 0 0 0 0 0 0 0 0 0 0 0 0 0 0 0 0 0 0 0 0
Wind_Speed_500mb
26 27 26 5 7 9 1 4 3 5 4 5 12 9 14 9 6 6 35 25 22 22 27 32 31 29 26 23 23 22 20 20 19 14 12 12 14 19 21 24 27 29 31 31 29 33 31 37 38
26 25 14 4 9 6 8 5 11 7 23 33 24 16 10 3 7 18 41 31 23 24 30 32 32 30 27 28 26 20 17 19 18 13 11 14 19 21 21 23 25 27 30 30 29 35 33 33 36
22 22 11 7 5 6 7 6 9 20 37 7 12 14 7 8 13 39 29 35 28 29 29 32 35 32 28 28 24 19 14 16 17 15 10 11 15 19 21 22 26 25 28 27 29 31 30 30 33
17 9 8 7 4 5 7 11 14 19 10 11 26 15 8 6 25 33 37 33 31 31 32 32 35 35 32 29 24 19 14 17 18 22 14 10 15 20 20 21 24 24 26 26 26 26 27 26 29
14 7 7 5 8 11 8 18 31 9 11 16 18 11 9 23 28 29 34 33 34 33 33 32 34 35 31 27 24 21 18 18 18 21 18 13 15 17 18 19 22 24 24 24 25 23 21 24 27
5 5 7 2 7 10 7 7 9 8 21 18 15 23 16 27 28 34 34 33 33 32 33 31 31 31 30 26 22 22 23 18 19 21 21 14 13 16 16 18 20 21 22 23 22 20 20 23 25
10 6 7 4 6 9 6 22 10 15 16 17 26 13 13 35 32 36 38 35 34 34 33 33 32 32 28 24 20 20 21 18 20 21 20 15 15 16 16 17 19 20 22 23 22 18 15 17 22
12 9 2 6 5 9 6 17 14 23 15 16 31 14 12 49 43 42 42 37 37 38 36 34 32 32 30 26 23 23 22 21 19 19 21 17 15 15 16 15 17 18 20 21 21 18 13 14 18
18 7 7 10 12 8 6 6 6 15 19 25 25 13 11 47 52 52 52 47 43 45 42 38 36 34 32 29 26 24 23 23 22 21 20 17 18 17 16 16 16 18 19 19 19 17 13 10 11
11 10 17 12 8 6 8 14 10 9 18 16 28 24 20 49 60 63 65 62 57 54 52 45 41 37 35 32 29 28 27 24 24 24 21 20 20 19 18 17 17 16 18 19 18 16 13 8 6
9 15 12 13 14 12 7 7 9 9 8 33 52 40 36 56 62 64 66 64 61 56 55 52 47 42 39 35 33 31 29 28 26 25 24 24 23 22 21 18 17 16 16 16 15 13 12 10 6
4 24 20 9 14 23 15 17 10 27 33 26 38 45 50 62 67 68 70 70 64 59 56 54 51 48 44 39 36 33 33 31 28 26 26 27 25 24 22 20 17 16 15 14 13 13 12 10 9
4 8 22 12 12 12 28 25 23 24 43 23 28 45 54 58 64 67 66 66 65 63 60 59 56 53 48 46 41 39 37 34 31 30 28 28 25 23 23 22 20 18 16 14 12 11 10 10 10
2 13 38 31 26 21 9 29 23 38 39 39 29 49 60 63 64 71 75 73 73 66 65 61 63 58 54 52 48 44 41 37 36 34 31 27 26 25 23 22 21 20 17 17 16 14 12 12 12
2 9 16 18 10 14 8 20 15 59 39 44 46 45 61 69 73 76 67 72 71 71 66 66 64 62 60 56 53 51 46 42 40 36 34 30 29 26 24 24 23 21 21 21 20 18 18 18 16
5 1 8 3 10 12 17 39 6 46 51 47 53 56 64 72 78 77 79 78 75 74 74 70 68 68 65 62 58 55 52 48 46 42 38 35 33 31 29 29 28 26 24 23 22 22 23 22 20
5 5 7 11 10 10 19 9 22 54 49 57 61 65 67 71 78 83 84 84 83 80 79 77 75 72 69 65 63 60 56 56 51 48 44 41 39 38 37 34 31 30 29 27 26 26 26 24 21
16 10 12 15 5 5 16 29 16 40 37 67 78 77 73 79 85 84 84 84 89 88 87 82 80 77 72 69 68 66 62 61 58 54 49 46 46 44 44 42 39 36 36 33 32 31 29 26 23
6 14 19 3 5 2 14 34 18 45 52 48 63 72 81 93 91 85 88 91 91 97 96 92 90 87 81 80 80 76 74 69 66 62 56 53 52 50 50 48 45 44 43 38 35 32 33 30 24
25 25 28 6 6 3 18 41 24 31 55 49 61 77 83 93 98 91 91 94 99 98 100 99 98 95 90 87 82 78 78 76 69 66 65 60 57 55 54 53 52 50 48 45 43 40 38 34 27
38 43 26 18 6 11 8 41 33 23 56 59 68 76 88 93 95 103 102 100 101 103 104 103 104 102 97 93 88 85 83 81 81 80 76 69 63 60 58 56 54 53 53 53 48 45 43 40 31
40 26 24 24 10 20 8 30 42 19 39 37 68 69 79 101 107 94 101 105 107 105 104 100 103 106 105 97 97 93 92 91 91 87 79 72 68 65 62 60 57 52 52 54 52 48 47 47 42
28 12 16 29 29 25 34 12 44 23 37 49 35 67 80 103 111 116 105 99 106 107 104 105 100 101 104 101 102 96 95 91 82 84 82 76 71 69 66 63 60 56 53 51 53 55 54 56 51
10 17 12 16 24 23 56 32 56 38 50 36 29 58 84 96 114 113 123 117 109 104 106 106 106 102 97 95 98 100 95 93 86 86 83 79 76 71 70 66 63 62 59 57 55 56 58 60 62
22 15 8 9 11 25 21 27 54 17 31 48 32 48 75 89 98 111 114 111 108 108 109 108 106 102 96 92 98 99 92 91 88 84 82 81 75 73 71 70 69 69 66 63 61 61 63 65 68
25 26 10 14 13 21 7 22 41 32 75 88 74 75 67 80 88 94 114 116 110 109 107 106 104 100 99 98 97 92 88 88 86 86 81 81 75 71 63 61 65 69 68 67 65 67 67 68 71
14 22 29 22 12 8 10 19 32 34 27 35 64 69 76 71 79 91 102 106 115 116 109 101 103 102 98 94 94 92 86 85 85 85 82 79 74 71 63 61 59 56 60 66 68 68 74 72 72
36 8 14 20 31 49 18 27 31 9 37 46 39 54 75 89 63 74 86 90 101 110 107 100 96 99 93 93 92 91 85 81 80 84 84 78 73 68 60 58 58 57 54 57 63 67 67 69 69
19 23 19 8 12 23 30 24 37 38 21 34 41 72 84 81 90 58 73 77 83 101 100 95 94 97 96 91 87 88 84 83 82 81 80 78 72 66 60 57 54 61 60 60 64 65 67 69 69
37 40 47 21 36 16 24 46 7 20 36 40 47 63 78 73 73 62 54 65 71 85 91 94 90 93 88 84 83 80 80 82 80 78 78 75 70 64 59 60 63 63 62 63 66 65 69 72 67
Wind_Direction_500mb
316 330 333 338 53 59 298 189 134 109 89 106 141 169 149 90 162 214 150 149 156 176 168 164 159 154 152 148 139 139 138 136 133 128 118 108 101 97 95 89 87 97 100 99 94 86 87 82 83
320 333 350 351 84 50 289 263 153 187 138 118 98 92 80 131 150 157 153 156 160 172 169 166 162 159 158 152 147 146 138 149 143 129 117 104 94 99 93 92 98 103 100 99 96 89 87 87 82
326 341 0 73 93 157 206 212 166 140 150 149 108 87 108 170 186 166 162 153 162 168 169 164 165 158 161 158 158 153 154 158 150 130 121 105 106 102 94 94 97 104 106 107 102 94 92 91 91
339 12 46 71 274 267 215 176 169 141 145 175 134 85 115 181 163 167 163 159 166 170 167 168 171 168 172 172 177 178 175 161 153 143 150 121 106 105 94 93 101 110 111 111 107 101 93 90 90
355 41 38 38 294 296 300 171 164 157 146 152 154 165 122 147 161 166 168 170 174 171 169 171 177 184 190 196 197 197 192 165 159 155 164 150 119 108 104 109 112 116 116 117 113 109 100 89 86
57 72 54 305 278 305 323 172 186 164 151 156 121 137 150 171 179 169 173 176 179 180 173 175 177 186 193 197 201 199 199 179 158 157 161 155 135 126 123 122 120 120 117 121 120 112 107 96 93
110 81 180 233 266 313 216 211 215 185 170 187 154 132 178 191 186 179 179 177 185 190 185 181 181 184 192 197 194 192 192 183 169 166 162 157 142 135 132 126 124 125 125 128 129 121 110 98 93
119 92 176 226 197 272 263 197 213 196 198 176 173 172 192 191 185 185 184 184 188 196 194 191 187 188 190 189 188 187 184 178 173 163 163 162 157 150 139 134 132 132 132 134 139 140 136 108 95
135 82 225 231 175 244 288 208 209 203 173 171 198 227 240 189 184 187 186 188 194 197 200 197 195 193 190 188 186 182 180 173 169 166 168 172 165 163 152 145 140 141 138 137 143 150 154 128 110
154 145 220 208 224 233 301 211 229 191 183 209 203 209 208 184 188 194 195 194 197 198 199 200 201 198 193 193 191 186 182 180 179 176 175 176 174 169 165 161 156 153 149 146 148 156 159 173 145
214 188 150 229 251 296 318 262 209 202 248 214 203 198 193 188 196 203 207 207 204 201 201 202 203 202 201 200 197 192 188 188 187 186 185 185 185 183 179 177 171 167 161 161 167 173 176 180 187
251 250 198 202 255 310 275 277 244 216 229 257 226 217 195 197 202 208 212 212 211 208 207 206 206 207 205 205 205 201 198 197 197 194 193 192 192 194 193 190 189 183 178 180 183 186 188 192 200
229 280 282 249 235 249 294 282 263 241 245 257 229 210 208 207 213 214 218 216 215 214 212 211 211 210 209 209 208 208 206 207 204 202 198 199 199 201 204 203 202 204 202 202 203 205 203 209 217
171 272 274 287 283 262 267 279 260 259 256 242 238 217 213 215 219 215 217 219 218 217 218 215 215 214 212 214 213 214 213 212 213 212 208 208 209 211 208 214 215 216 215 218 220 221 224 231 230
265 279 301 279 245 241 220 273 198 252 254 238 234 228 217 223 217 222 227 221 221 220 219 220 220 218 217 217 218 218 218 216 219 221 219 217 218 219 216 222 225 225 225 226 228 232 236 239 242
197 140 248 43 172 226 196 243 229 247 243 240 234 230 222 225 226 229 230 228 225 223 221 221 222 223 221 220 220 220 220 221 223 223 225 225 226 225 226 228 229 230 233 236 236 238 241 244 246
204 259 208 318 209 210 206 272 234 248 247 242 241 236 231 229 233 233 231 233 232 228 226 223 223 224 223 222 223 223 224 224 225 224 226 228 230 231 231 233 233 236 240 241 241 244 245 244 244
214 220 218 203 195 37 286 266 271 267 249 233 245 244 239 237 238 239 236 235 234 233 232 229 228 226 225 226 225 226 225 227 226 227 227 230 232 234 236 236 235 237 241 241 242 244 244 244 245
334 245 243 145 187 281 246 271 250 257 260 247 253 249 245 242 245 243 240 234 233 234 232 232 230 228 225 224 226 226 227 225 227 228 228 229 231 235 238 240 239 240 242 244 247 244 240 237 238
241 262 263 311 234 294 278 272 251 244 258 248 248 251 250 247 245 242 243 236 232 234 235 232 233 231 230 229 230 232 233 232 235 235 234 232 233 235 239 241 242 243 244 241 239 239 239 230 224
237 240 252 253 5 254 319 283 265 241 257 252 255 252 254 255 252 246 243 241 236 233 234 234 232 233 232 232 231 233 235 237 237 238 235 234 236 237 240 242 244 245 245 243 240 240 236 231 224
242 217 246 267 277 262 150 278 262 221 245 241 237 237 244 251 250 250 247 242 240 238 235 236 235 234 234 231 232 232 233 233 235 237 238 238 238 238 240 242 243 245 244 244 241 239 237 230 230
237 169 204 231 246 260 251 258 276 193 235 245 234 232 234 248 253 246 243 245 244 240 237 235 235 234 234 232 234 234 234 237 240 240 241 241 241 241 242 242 242 241 243 246 245 239 236 232 233
171 251 288 257 233 235 239 219 273 241 240 264 232 236 236 240 251 245 245 247 247 241 237 235 233 233 233 232 233 235 235 236 237 239 240 242 243 242 244 242 243 243 245 247 249 245 240 238 237
201 197 233 231 213 243 235 221 243 253 252 234 242 238 242 245 249 245 242 239 238 236 235 234 234 233 233 233 234 235 237 237 239 241 243 244 243 244 244 244 245 245 246 247 248 247 244 242 243
205 198 205 223 227 251 214 216 238 238 243 250 257 252 247 245 244 238 242 239 235 232 234 233 233 233 233 232 237 236 238 238 239 242 244 246 247 248 251 251 253 254 252 251 250 250 249 247 248
190 224 226 274 248 264 218 272 287 264 255 248 244 240 239 250 248 244 242 241 235 231 233 233 233 232 234 234 235 238 238 237 239 241 244 245 247 249 250 253 254 255 252 253 253 252 252 253 253
224 209 197 209 244 247 234 247 249 242 231 230 228 233 233 235 245 244 236 239 235 232 232 233 234 233 236 236 234 235 236 238 239 242 244 246 248 250 250 252 252 255 257 257 255 254 256 259 256
202 227 227 268 205 242 258 254 241 237 225 239 246 236 232 232 228 241 236 231 236 232 229 230 231 232 232 234 235 236 237 237 240 242 245 247 250 254 256 257 259 257 259 257 257 255 257 258 257
224 224 218 228 225 227 255 264 215 242 232 236 248 241 233 235 229 230 230 224 225 225 225 226 228 229 231 232 234 236 238 240 242 244 247 251 252 256 259 258 258 258 256 256 257 258 257 259 261
Wind_Speed_850mb
26 27 26 5 7 9 1 4 3 5 4 5 12 9 14 9 6 6 35 25 22 22 27 32 31 29 26 23 23 22 20 20 19 14 12 12 14 19 21 24 27 29 31 31 29 33 31 37 38
26 25 14 4 9 6 8 5 11 7 23 33 24 16 10 3 7 18 41 31 23 24 30 32 32 30 27 28 26 20 17 19 18 13 11 14 19 21 21 23 25 27 30 30 29 35 33 33 36
22 22 11 7 5 6 7 6 9 20 37 7 12 14 7 8 13 39 29 35 28 29 29 32 35 32 28 28 24 19 14 16 17 15 10 11 15 19 21 22 26 25 28 27 29 31 30 30 33
17 9 8 7 4 5 7 11 14 19 10 11 26 15 8 6 25 33 37 33 31 31 32 32 35 35 32 29 24 19 14 17 18 22 14 10 15 20 20 21 24 24 26 26 26 26 27 26 29
14 7 7 5 8 11 8 18 31 9 11 16 18 11 9 23 28 29 34 33 34 33 33 32 34 35 31 27 24 21 18 18 18 21 18 13 15 17 18 19 22 24 24 24 25 23 21 24 27
5 5 7 2 7 10 7 7 9 8 21 18 15 23 16 27 28 34 34 33 33 32 33 31 31 31 30 26 22 22 23 18 19 21 21 14 13 16 16 18 20 21 22 23 22 20 20 23 25
10 6 7 4 6 9 6 22 10 15 16 17 26 13 13 35 32 36 38 35 34 34 33 33 32 32 28 24 20 20 21 18 20 21 20 15 15 16 16 17 19 20 22 23 22 18 15 17 22
12 9 2 6 5 9 6 17 14 23 15 16 31 14 12 49 43 42 42 37 37 38 36 34 32 32 30 26 23 23 22 21 19 19 21 17 15 15 16 15 17 18 20 21 21 18 13 14 18
18 7 7 10 12 8 6 6 6 15 19 25 25 13 11 47 52 52 52 47 43 45 42 38 36 34 32 29 26 24 23 23 22 21 20 17 18 17 16 16 16 18 19 19 19 17 13 10 11
11 10 17 12 8 6 8 14 10 9 18 16 28 24 20 49 60 63 65 62 57 54 52 45 41 37 35 32 29 28 27 24 24 24 21 20 20 19 18 17 17 16 18 19 18 16 13 8 6
9 15 12 13 14 12 7 7 9 9 8 33 52 40 36 56 62 64 66 64 61 56 55 52 47 42 39 35 33 31 29 28 26 25 24 24 23 22 21 18 17 16 16 16 15 13 12 10 6
4 24 20 9 14 23 15 17 10 27 33 26 38 45 50 62 67 68 70 70 64 59 56 54 51 48 44 39 36 33 33 31 28 26 26 27 25 24 22 20 17 16 15 14 13 13 12 10 9
4 8 22 12 12 12 28 25 23 24 43 23 28 45 54 58 64 67 66 66 65 63 60 59 56 53 48 46 41 39 37 34 31 30 28 28 25 23 23 22 20 18 16 14 12 11 10 10 10
2 13 38 31 26 21 9 29 23 38 39 39 29 49 60 63 64 71 75 73 73 66 65 61 63 58 54 52 48 44 41 37 36 34 31 27 26 25 23 22 21 20 17 17 16 14 12 12 12
2 9 16 18 10 14 8 20 15 59 39 44 46 45 61 69 73 76 67 72 71 71 66 66 64 62 60 56 53 51 46 42 40 36 34 30 29 26 24 24 23 21 21 21 20 18 18 18 16
5 1 8 3 10 12 17 39 6 46 51 47 53 56 64 72 78 77 79 78 75 74 74 70 68 68 65 62 58 55 52 48 46 42 38 35 33 31 29 29 28 26 24 23 22 22 23 22 20
5 5 7 11 10 10 19 9 22 54 49 57 61 65 67 71 78 83 84 84 83 80 79 77 75 72 69 65 63 60 56 56 51 48 44 41 39 38 37 34 31 30 29 27 26 26 26 24 21
16 10 12 15 5 5 16 29 16 40 37 67 78 77 73 79 85 84 84 84 89 88 87 82 80 77 72 69 68 66 62 61 58 54 49 46 46 44 44 42 39 36 36 33 32 31 29 26 23
6 14 19 3 5 2 14 34 18 45 52 48 63 72 81 93 91 85 88 91 91 97 96 92 90 87 81 80 80 76 74 69 66 62 56 53 52 50 50 48 45 44 43 38 35 32 33 30 24
25 25 28 6 6 3 18 41 24 31 55 49 61 77 83 93 98 91 91 94 99 98 100 99 98 95 90 87 82 78 78 76 69 66 65 60 57 55 54 53 52 50 48 45 43 40 38 34 27
38 43 26 18 6 11 8 41 33 23 56 59 68 76 88 93 95 103 102 100 101 103 104 103 104 102 97 93 88 85 83 81 81 80 76 69 63 60 58 56 54 53 53 53 48 45 43 40 31
40 26 24 24 10 20 8 30 42 19 39 37 68 69 79 101 107 94 101 105 107 105 104 100 103 106 105 97 97 93 92 91 91 87 79 72 68 65 62 60 57 52 52 54 52 48 47 47 42
28 12 16 29 29 25 34 12 44 23 37 49 35 67 80 103 111 116 105 99 106 107 104 105 100 101 104 101 102 96 95 91 82 84 82 76 71 69 66 63 60 56 53 51 53 55 54 56 51
10 17 12 16 24 23 56 32 56 38 50 36 29 58 84 96 114 113 123 117 109 104 106 106 106 102 97 95 98 100 95 93 86 86 83 79 76 71 70 66 63 62 59 57 55 56 58 60 62
22 15 8 9 11 25 21 27 54 17 31 48 32 48 75 89 98 111 114 111 108 108 109 108 106 102 96 92 98 99 92 91 88 84 82 81 75 73 71 70 69 69 66 63 61 61 63 65 68
25 26 10 14 13 21 7 22 41 32 75 88 74 75 67 80 88 94 114 116 110 109 107 106 104 100 99 98 97 92 88 88 86 86 81 81 75 71 63 61 65 69 68 67 65 67 67 68 71
14 22 29 22 12 8 10 19 32 34 27 35 64 69 76 71 79 91 102 106 115 116 109 101 103 102 98 94 94 92 86 85 85 85 82 79 74 71 63 61 59 56 60 66 68 68 74 72 72
36 8 14 20 31 49 18 27 31 9 37 46 39 54 75 89 63 74 86 90 101 110 107 100 96 99 93 93 92 91 85 81 80 84 84 78 73 68 60 58 58 57 54 57 63 67 67 69 69
19 23 19 8 12 23 30 24 37 38 21 34 41 72 84 81 90 58 73 77 83 101 100 95 94 97 96 91 87 88 84 83 82 81 80 78 72 66 60 57 54 61 60 60 64 65 67 69 69
37 40 47 21 36 16 24 46 7 20 36 40 47 63 78 73 73 62 54 65 71 85 91 94 90 93 88 84 83 80 80 82 80 78 78 75 70 64 59 60 63 63 62 63 66 65 69 72 67
Wind_Direction_850mb
316 330 333 338 53 59 298 189 134 109 89 106 141 169 149 90 162 214 150 149 156 176 168 164 159 154 152 148 139 139 138 136 133 128 118 108 101 97 95 89 87 97 100 99 94 86 87 82 83
320 333 350 351 84 50 289 263 153 187 138 118 98 92 80 131 150 157 153 156 160 172 169 166 162 159 158 152 147 146 138 149 143 129 117 104 94 99 93 92 98 103 100 99 96 89 87 87 82
326 341 0 73 93 157 206 212 166 140 150 149 108 87 108 170 186 166 162 153 162 168 169 164 165 158 161 158 158 153 154 158 150 130 121 105 106 102 94 94 97 104 106 107 102 94 92 91 91
339 12 46 71 274 267 215 176 169 141 145 175 134 85 115 181 163 167 163 159 166 170 167 168 171 168 172 172 177 178 175 161 153 143 150 121 106 105 94 93 101 110 111 111 107 101 93 90 90
355 41 38 38 294 296 300 171 164 157 146 152 154 165 122 147 161 166 168 170 174 171 169 171 177 184 190 196 197 197 192 165 159 155 164 150 119 108 104 109 112 116 116 117 113 109 100 89 86
57 72 54 305 278 305 323 172 186 164 151 156 121 137 150 171 179 169 173 176 179 180 173 175 177 186 193 197 201 199 199 179 158 157 161 155 135 126 123 122 120 120 117 121 120 112 107 96 93
110 81 180 233 266 313 216 211 215 185 170 187 154 132 178 191 186 179 179 177 185 190 185 181 181 184 192 197 194 192 192 183 169 166 162 157 142 135 132 126 124 125 125 128 129 121 110 98 93
119 92 176 226 197 272 263 197 213 196 198 176 173 172 192 191 185 185 184 184 188 196 194 191 187 188 190 189 188 187 184 178 173 163 163 162 157 150 139 134 132 132 132 134 139 140 136 108 95
135 82 225 231 175 244 288 208 209 203 173 171 198 227 240 189 184 187 186 188 194 197 200 197 195 193 190 188 186 182 180 173 169 166 168 172 165 163 152 145 140 141 138 137 143 150 154 128 110
154 145 220 208 224 233 301 211 229 191 183 209 203 209 208 184 188 194 195 194 197 198 199 200 201 198 193 193 191 186 182 180 179 176 175 176 174 169 165 161 156 153 149 146 148 156 159 173 145
214 188 150 229 251 296 318 262 209 202 248 214 203 198 193 188 196 203 207 207 204 201 201 202 203 202 201 200 197 192 188 188 187 186 185 185 185 183 179 177 171 167 161 161 167 173 176 180 187
251 250 198 202 255 310 275 277 244 216 229 257 226 217 195 197 202 208 212 212 211 208 207 206 206 207 205 205 205 201 198 197 197 194 193 192 192 194 193 190 189 183 178 180 183 186 188 192 200
229 280 282 249 235 249 294 282 263 241 245 257 229 210 208 207 213 214 218 216 215 214 212 211 211 210 209 209 208 208 206 207 204 202 198 199 199 201 204 203 202 204 202 202 203 205 203 209 217
171 272 274 287 283 262 267 279 260 259 256 242 238 217 213 215 219 215 217 219 218 217 218 215 215 214 212 214 213 214 213 212 213 212 208 208 209 211 208 214 215 216 215 218 220 221 224 231 230
265 279 301 279 245 241 220 273 198 252 254 238 234 228 217 223 217 222 227 221 221 220 219 220 220 218 217 217 218 218 218 216 219 221 219 217 218 219 216 222 225 225 225 226 228 232 236 239 242
197 140 248 43 172 226 196 243 229 247 243 240 234 230 222 225 226 229 230 228 225 223 221 221 222 223 221 220 220 220 220 221 223 223 225 225 226 225 226 228 229 230 233 236 236 238 241 244 246
204 259 208 318 209 210 206 272 234 248 247 242 241 236 231 229 233 233 231 233 232 228 226 223 223 224 223 222 223 223 224 224 225 224 226 228 230 231 231 233 233 236 240 241 241 244 245 244 244
214 220 218 203 195 37 286 266 271 267 249 233 245 244 239 237 238 239 236 235 234 233 232 229 228 226 225 226 225 226 225 227 226 227 227 230 232 234 236 236 235 237 241 241 242 244 244 244 245
334 245 243 145 187 281 246 271 250 257 260 247 253 249 245 242 245 243 240 234 233 234 232 232 230 228 225 224 226 226 227 225 227 228 228 229 231 235 238 240 239 240 242 244 247 244 240 237 238
241 262 263 311 234 294 278 272 251 244 258 248 248 251 250 247 245 242 243 236 232 234 235 232 233 231 230 229 230 232 233 232 235 235 234 232 233 235 239 241 242 243 244 241 239 239 239 230 224
237 240 252 253 5 254 319 283 265 241 257 252 255 252 254 255 252 246 243 241 236 233 234 234 232 233 232 232 231 233 235 237 237 238 235 234 236 237 240 242 244 245 245 243 240 240 236 231 224
242 217 246 267 277 262 150 278 262 221 245 241 237 237 244 251 250 250 247 242 240 238 235 236 235 234 234 231 232 232 233 233 235 237 238 238 238 238 240 242 243 245 244 244 241 239 237 230 230
237 169 204 231 246 260 251 258 276 193 235 245 234 232 234 248 253 246 243 245 244 240 237 235 235 234 234 232 234 234 234 237 240 240 241 241 241 241 242 242 242 241 243 246 245 239 236 232 233
171 251 288 257 233 235 239 219 273 241 240 264 232 236 236 240 251 245 245 247 247 241 237 235 233 233 233 232 233 235 235 236 237 239 240 242 243 242 244 242 243 243 245 247 249 245 240 238 237
201 197 233 231 213 243 235 221 243 253 252 234 242 238 242 245 249 245 242 239 238 236 235 234 234 233 233 233 234 235 237 237 239 241 243 244 243 244 244 244 245 245 246 247 248 247 244 242 243
205 198 205 223 227 251 214 216 238 238 243 250 257 252 247 245 244 238 242 239 235 232 234 233 233 233 233 232 237 236 238 238 239 242 244 246 247 248 251 251 253 254 252 251 250 250 249 247 248
190 224 226 274 248 264 218 272 287 264 255 248 244 240 239 250 248 244 242 241 235 231 233 233 233 232 234 234 235 238 238 237 239 241 244 245 247 249 250 253 254 255 252 253 253 252 252 253 253
224 209 197 209 244 247 234 247 249 242 231 230 228 233 233 235 245 244 236 239 235 232 232 233 234 233 236 236 234 235 236 238 239 242 244 246 248 250 250 252 252 255 257 257 255 254 256 259 256
202 227 227 268 205 242 258 254 241 237 225 239 246 236 232 232 228 241 236 231 236 232 229 230 231 232 232 234 235 236 237 237 240 242 245 247 250 254 256 257 259 257 259 257 257 255 257 258 257
224 224 218 228 225 227 255 264 215 242 232 236 248 241 233 235 229 230 230 224 225 225 225 226 228 229 231 232 234 236 238 240 242 244 247 251 252 256 259 258 258 258 256 256 257 258 257 259 261